Regional Weather Roundup
Issued by NWS

Home | Current Version | Previous Version | Graphics & Text | Print | Product List | Glossary On
Versions: 1 2 3 4 5 6 7 8 9 10 11 12 13 14 15 16 17 18 19 20 21 22 23 24 25 26 27 28 29 30 31 32 33 34 35 36 37 38 39 40 41 42 43 44 45 46 47 48 49 50
000
ASUS43 KFSD 190702
RWRSD

WEATHER ROUNDUP FOR SOUTH DAKOTA
NATIONAL WEATHER SERVICE SIOUX FALLS SD
200 AM CDT SAT AUG 19 2017

NOTE: "FAIR" INDICATES FEW OR NO CLOUDS BELOW 12,000 FEET WITH NO
SIGNIFICANT WEATHER AND/OR OBSTRUCTIONS TO VISIBILITY.


SDZ001>005-009-010-012>017-190800-
NORTHWEST AND NORTH CENTRAL SOUTH DAKOTA

CITY           SKY/WX    TMP DP  RH WIND       PRES   REMARKS
BUFFALO          N/A     65  48  54 SE12      29.85F
FAITH            N/A     61  52  72 SE14      29.94F
MOBRIDGE       CLEAR     63  59  87 SE3       29.91F
$$

SDZ012>016-024>037-041>051-057-063-072>074-190800-
SOUTHWEST AND SOUTH CENTRAL SOUTH DAKOTA

CITY           SKY/WX    TMP DP  RH WIND       PRES   REMARKS
RAPID CTY ARPT CLEAR     62  47  57 S9        29.97F
PIERRE         CLEAR     63  56  78 SE9       29.94S
CUSTER         CLEAR     51  41  68 N6        30.12F
ELLSWORTH AFB  CLEAR     65  47  51 S7        29.96F
PHILIP         CLEAR     64  52  64 E7        29.95F
PINE RIDGE     CLEAR     71  53  52 S17G25    29.98F
SPEARFISH      FAIR      70  41  35 S10       29.96S
WINNER         FAIR      63  57  81 SE7       29.98F
$$

SDZ004>011-016>023-039-040-190800-
NORTHEAST SOUTH DAKOTA

CITY           SKY/WX    TMP DP  RH WIND       PRES   REMARKS
ABERDEEN       CLEAR     53  53 100 SW6       29.93F
WATERTOWN      CLEAR     57  57 100 E3        29.94F FOG
BROOKINGS      CLEAR     58  57  97 CALM      29.96F
SISSETON         N/A     59  57  93 S3        29.90F
$$

SDZ017-020-022-023-036>040-048>070-190800-
SOUTHEAST SOUTH DAKOTA

CITY           SKY/WX    TMP DP  RH WIND       PRES   REMARKS
SIOUX FALLS    CLEAR     60  58  92 CALM      29.95F
HURON          CLEAR     57  56  96 SW7       29.95S
CHAMBERLAIN    CLEAR     60  58  92 SE3       29.97F
MITCHELL       CLEAR     60  58  92 CALM      29.95F
YANKTON        CLEAR     60  56  86 W5        29.96F
$$

ABBREVIATIONS USED IN REMARKS
   TC - TEMPERATURE IN CELSIUS
  WCI - WIND CHILL INDEX
   HX - HEAT INDEX
  VSB - VISIBILITY





USA.gov is the U.S. government's official web portal to all federal, state and local government web resources and services.